Location: Melbourne
(37.8170°S, 144.9670°E)
Time: 01:09:53
(UTC+10:00)

ERBS - Visible Passes

Search period start: 04 September 2015 00:00
Search period end: 14 September 2015 00:00
Orbit: 449 x 461 km, 57.0° (Epoch: 02 September)

Date Brightness Start Highest point End Pass type
(mag) Time Alt. Az. Time Alt. Az. Time Alt. Az.
04 Sep 2.4 18:51:58 10° NW 18:55:35 82° NE 18:59:10 11° SE visible
04 Sep 5.5 20:31:18 10° WSW 20:32:55 13° SW 20:32:55 13° SW visible
05 Sep 5.1 19:54:55 10° WSW 19:57:24 17° SW 19:59:13 12° S visible
06 Sep 4.8 19:18:43 10° W 19:21:38 22° SW 19:24:30 10° SSE visible
07 Sep 4.4 18:42:39 10° WNW 18:45:52 28° SW 18:49:05 10° SSE visible
10 Sep 5.3 18:34:56 10° SW 18:36:26 12° SSW 18:37:51 10° S visible
